Regional Weather Roundup
Issued by NWS

Home | Current Version | Previous Version | Text Only | Print | Product List | Glossary Off
Versions: 1 2 3 4 5 6 7 8 9 10 11 12 13 14 15 16 17 18 19 20 21 22 23 24 25 26 27 28 29 30 31 32 33 34 35 36 37 38 39 40 41 42 43 44 45 46 47 48 49 50

926
ASUS44 KJAN 311910
RWRMS

MISSISSIPPI HOURLY WEATHER ROUNDUP
NATIONAL WEATHER SERVICE JACKSON MS
200 PM CDT THU JUL 31 2014

NOTE: "FAIR: INDICATES FEW OR NO CLOUDS BELOW 12,000 FEET WITH NO
SIGNIFICANT WEATHER AND/OR OBSTRUCTIONS TO VISIBILITY.

MSZ001>002-007>008-010>013-018>021-025>028-034>036-312000-
NORTHWEST MISSISSIPPI

CITY           SKY/WX    TMP DP  RH WIND       PRES   REMARKS
CLARKSDALE     CLOUDY    75  68  78 N7        30.10S
CLEVELAND      FAIR      82  66  58 E5        30.06F
GREENWOOD      MOSUNNY   81  64  56 VRB5      30.06F
GREENVILLE     PTSUNNY   79  63  57 CALM      30.06F
GRENADA        CLOUDY    81  61  50 E3        30.08S
OLIVE BRANCH   PTSUNNY   79  64  61 W5        30.10F
OXFORD         FAIR      77  63  61 CALM      30.11F
TUNICA         PTCLDY    77  63  61 NW6       30.10F
$$

MSZ003>006-009-014>017-022>024-029>033-037>039-312000-
NORTHEAST MISSISSIPPI

CITY           SKY/WX    TMP DP  RH WIND       PRES   REMARKS
BELMONT        FAIR      80  63  56 CALM      30.09F
COLUMBUS AFB   CLOUDY    77  66  69 N3        30.08S
CORINTH        FAIR      79  63  57 W3        30.09F
GOLDN TRIANGLE MOSUNNY   79  66  65 N5        30.08F
STARKVILLE     FAIR      77  63  61 CALM      30.07F
TUPELO         PTSUNNY   81  60  48 CALM      30.08F
$$

MSZ040-058-312000-
CENTRAL MISSISSIPPI

CITY           SKY/WX    TMP DP  RH WIND       PRES   REMARKS
JACKSON INTL   CLOUDY    85  56  37 VRB3      30.05F
JACKSON HAWKNS CLOUDY    83  61  47 S7        30.05F
MERIDIAN KEY   CLOUDY    84  56  38 N7        30.04F
MERIDIAN NAS   CLOUDY    83  60  45 N5        30.05F
RAYMOND        FAIR      81  75  83 CALM      30.05F
VICKSBURG      CLOUDY    79  65  62 CALM      30.06S
$$

MSZ059>079-312000-
SOUTH MISSISSIPPI

CITY           SKY/WX    TMP DP  RH WIND       PRES   REMARKS
BROOKHAVEN     FAIR      73  66  78 CALM      30.08F
COLUMBIA       FAIR      81  66  61 CALM      30.03F
HATTIESBURG    CLOUDY    83  63  50 VRB3      30.04F
MCCOMB         PTSUNNY   82  61  48 E5        30.05F
NATCHEZ        CLOUDY    79  64  61 CALM      30.06F
PINE BELT      CLOUDY    81  59  47 N3        30.06F
$$

MSZ080>082-312000-
COASTAL MISSISSIPPI

CITY           SKY/WX    TMP DP  RH WIND       PRES   REMARKS
BAY ST LOUIS   MOSUNNY  N/A N/A N/A NE5       30.03F
BILOXI         SUNNY     88  59  37 N6        30.02F
PASCAGOULA     SUNNY     87  62  43 VRB6      30.03S
GULFPORT       MOSUNNY   92  58  31 N10       30.02F HX  91
$$



USA.gov is the U.S. government's official web portal to all federal, state and local government web resources and services.